This is the latest recevied weather packets stored in our database for station/object WA9SDJ-13. If no packets are shown the sender has not sent any weather packets the latest 1 day(s).
| Time | Temp. | Humidity | Pressure | Rain* | Wind** | Luminosity | Snow |
|---|---|---|---|---|---|---|---|
| 1778096164 | 14.44° C | 66% | 1014.1 hPa | 0 mm | - | 457 W/m² | - |
| 1778096104 | 14.44° C | 65% | 1014.1 hPa | 0 mm | - | 429 W/m² | - |
| 1778095804 | 13.89° C | 66% | 1014.1 hPa | 0 mm | - | 454 W/m² | - |
| 1778094723 | 13.89° C | 64% | 1014.2 hPa | 0 mm | - | 329 W/m² | - |
| 1778094663 | 13.89° C | 65% | 1014.3 hPa | 0 mm | - | 331 W/m² | - |
| 1778093942 | 13.33° C | 68% | 1014.3 hPa | 0.25 mm | - | 334 W/m² | - |
| 1778093823 | 13.33° C | 67% | 1014.3 hPa | 0.25 mm | - | 334 W/m² | - |
| 1778093399 | 13.33° C | 72% | 1014.1 hPa | 0.25 mm | - | 329 W/m² | - |
| 1778093276 | 13.33° C | 70% | 1014.1 hPa | 0.25 mm | - | 322 W/m² | - |
| 1778093091 | 13.33° C | 72% | 1014.1 hPa | 0.25 mm | - | 320 W/m² | - |
| 1778093030 | 13.33° C | 73% | 1014.1 hPa | 0.25 mm | - | 315 W/m² | - |
| 1778092906 | 13.33° C | 72% | 1014.2 hPa | 0.25 mm | - | 304 W/m² | - |
| 1778092784 | 13.33° C | 73% | 1014.3 hPa | 0.25 mm | - | 290 W/m² | - |
| 1778092722 | 13.33° C | 72% | 1014.2 hPa | 0.25 mm | - | 281 W/m² | - |
| 1778092412 | 13.33° C | 68% | 1014.1 hPa | 0.25 mm | - | 267 W/m² | - |
| 1778092051 | 13.33° C | 72% | 1014.1 hPa | 0.25 mm | - | 248 W/m² | - |
| 1778091991 | 13.33° C | 71% | 1014.1 hPa | 0.25 mm | - | 248 W/m² | - |
| 1778091932 | 13.33° C | 70% | 1014.1 hPa | 0.25 mm | - | 248 W/m² | - |
| 1778091746 | 13.33° C | 70% | 1014.1 hPa | 0.25 mm | - | 264 W/m² | - |
| 1778091685 | 13.33° C | 71% | 1014.1 hPa | 0.25 mm | - | 264 W/m² | - |
| 1778091482 | 13.33° C | 70% | 1014.1 hPa | 0.25 mm | - | 287 W/m² | - |
| 1778091423 | 13.33° C | 69% | 1014 hPa | 0.25 mm | - | 287 W/m² | - |
| 1778091363 | 13.33° C | 70% | 1014 hPa | 0.25 mm | - | 285 W/m² | - |
| 1778090281 | 12.78° C | 71% | 1014.1 hPa | 0 mm | - | 320 W/m² | - |
| 1778090221 | 12.78° C | 70% | 1014.2 hPa | 0 mm | - | 317 W/m² | - |
* Rain latest hour (hover to see other rain measurements)
** Current wind speed in m/s (hover to see current wind gust speed)